Regional Weather Roundup
Issued by NWS Kansas City/Pleasant Hill, MO

Home | Current Version | Previous Version | Text Only | Print | Product List | Glossary On
Versions: 1 2 3 4 5 6 7 8 9 10 11 12 13 14 15 16 17 18 19 20 21 22 23 24 25 26 27
000
ASUS43 KEAX 170210
RWREAX

WEATHER ROUNDUP FOR EASTERN KANSAS AND NORTHWEST MISSOURI
NATIONAL WEATHER SERVICE KANSAS CITY/PLEASANT HILL MO
900 PM CDT MON OCT 16 2017

KSZ040-057-103>105-MOZ028-029-037-043-170300-
...KANSAS CITY METROPOLITAN AREA...

CITY           SKY/WX    TMP DP  RH WIND       PRES   REMARKS
K.C. INTL      PTCLDY    49  42  77 S9        30.24R
K.C. DOWNTOWN  CLEAR     58  43  57 SW7       30.24R
LEES SUMMIT    CLEAR     57  42  57 S9        30.26S
OLATHE - IXD   CLEAR     51  42  71 S5        30.26S
OLATHE - OJC   CLEAR     54  41  61 S5        30.26R
LAWRENCE       CLEAR     51  44  77 SE6       30.24S

$$

MOZ001>008-011>017-020>025-030>033-038>040-044>046-053-054-170300-
...NORTHERN AND CENTRAL MISSOURI...

CITY           SKY/WX    TMP DP  RH WIND       PRES   REMARKS
ST. JOSEPH     CLEAR     54  44  69 S6        30.21S
MOSBY          CLEAR     52  43  71 CALM      30.25R
WARRENSBURG    CLEAR     52  43  71 S6        30.26F
WHITEMAN AFB   CLEAR     51  42  70 SW5       30.23S
CLINTON        CLEAR     50  43  76 S6        30.28F
SEDALIA        CLEAR     51  44  77 S6        30.28F
WARSAW         NOT AVBL
CHILLICOTHE      N/A     51  45  79 S3        30.25S
KIRKSVILLE     CLEAR     52  40  63 S7        30.25S

$$

MOZ041-047>049-056>058-063>065-088>090-097-170300-
...EASTERN AND SOUTHERN MISSOURI...

CITY           SKY/WX    TMP DP  RH WIND       PRES   REMARKS
ST. LOUIS INTL CLEAR     54  42  64 SW3       30.29S
SPIRIT OF STL  CLEAR     48  45  89 CALM      30.29R
COLUMBIA       CLEAR     53  41  63 S7        30.28S
JEFFERSON CITY CLEAR     50  43  77 CALM      30.28S
ROLLA          CLEAR     49  40  71 SW3       30.30S
OSAGE BEACH    CLEAR     48  44  86 CALM      30.31R
SPRINGFIELD    CLEAR     51  41  68 CALM      30.30R
BRANSON        CLEAR     54  36  50 CALM      30.32R
JOPLIN         CLEAR     50  46  86 CALM      30.30S
WEST PLAINS    CLEAR     45  39  79 CALM      30.32S

$$

IAZ060-094-KSZ022-034>040-054-083-096-NEZ052-066-093-170300-
...KANSAS...SOUTHEAST NEBRASKA AND IOWA...

CITY           SKY/WX    TMP DP  RH WIND       PRES   REMARKS
TOPEKA         CLEAR     57  42  57 S5        30.23R
MANHATTAN      CLEAR     56  41  57 SW7       30.21R
EMPORIA        CLEAR     49  40  71 S9        30.25R
CHANUTE        CLEAR     51  42  71 S6        30.28S
WICHITA        CLEAR     54  41  61 S8        30.25R
OMAHA          CLEAR     63  40  42 S14       30.12R
LINCOLN        CLEAR     57  42  57 S12       30.13S
FALLS CITY     CLEAR     57  40  52 S9        30.18S
LAMONI         CLEAR     57  41  55 S10       30.19S
DES MOINES     CLEAR     56  40  55 S9        30.15S

$$





USA.gov is the U.S. government's official web portal to all federal, state and local government web resources and services.